Overview Statistics Trail Chart Weather Telemetry Raw packets
 

This is the latest recevied weather packets stored in our database for station/object F8KHU-13. If no packets are shown the sender has not sent any weather packets the latest 10 day(s).

<< 51 52 53 54 55 56 57 >>
Time Temp. Humidity Pressure Rain* Wind** Luminosity Snow
1788013524 18.89° C 49% 1009.7 hPa 0 mm - 0 W/m² -
1788012663 18.89° C 46% 1009.8 hPa 0 mm - 0 W/m² -
1788012643 18.89° C 46% 1009.9 hPa 0 mm - 0 W/m² -
1788012623 18.89° C 47% 1009.8 hPa 0 mm - 0 W/m² -
1788011764 18.89° C 31% 1010.1 hPa 0 mm - 0 W/m² -
1788011744 18.89° C 31% 1010.2 hPa 0 mm - 0 W/m² -
1788010864 18.89° C 31% 1010.1 hPa 0 mm - 0 W/m² -
1788010844 18.89° C 31% 1010 hPa 0 mm - 0 W/m² -
1788010824 18.89° C 31% 1010.1 hPa 0 mm - 0 W/m² -
1788009964 18.89° C 31% 1010.1 hPa 0 mm - 0 W/m² -
1788009944 18.89° C 31% 1010.2 hPa 0 mm - 0 W/m² -
1788009924 20° C 31% 1010.2 hPa 0 mm - 0 W/m² -
1788009064 18.89° C 31% 1010.3 hPa 0 mm - 0 W/m² -
1788009044 18.89° C 31% 1010.2 hPa 0 mm - 0 W/m² -
1788009024 18.89° C 31% 1010.3 hPa 0 mm - 0 W/m² -
1788008164 18.89° C 31% 1010.4 hPa 0 mm - 0 W/m² -
1788008144 18.89° C 31% 1010.4 hPa 0 mm - 0 W/m² -
1788007264 18.89° C 37% 1010.6 hPa 0 mm - 0 W/m² -
1788007244 18.89° C 34% 1010.7 hPa 0 mm - 0 W/m² -
1788007224 18.89° C 31% 1010.6 hPa 0 mm - 0 W/m² -
1788006364 17.78° C 43% 1010.7 hPa 0 mm - 0 W/m² -
1788005465 17.78° C 43% 1010.9 hPa 0 mm - 0 W/m² -
1788005445 17.78° C 43% 1010.9 hPa 0 mm - 0 W/m² -
1788005425 17.78° C 44% 1010.9 hPa 0 mm - 0 W/m² -
1788004565 17.78° C 47% 1010.9 hPa 0 mm - 0 W/m² -

* Rain latest hour (hover to see other rain measurements)
** Current wind speed in m/s (hover to see current wind gust speed)